OK1TBF-6 Weather Reports


time (UTC)temp
C
wind
direction
speed
KPH
gust
KPH
rain 1hr
cm
rain 24hr
cm
rain mn
cm
humidity
%
barometer
mb
20260504223035 17 115 6.4 12.9 0.00 0.00 0.00 47 1003.6
20260504222035 17 112 6.4 12.9 0.00 0.00 0.00 46 1003.8
20260504221535 17 111 6.4 14.5 0.00 0.00 0.00 47 1003.8
20260504220536 17 114 8.0 11.3 0.00 0.00 0.00 46 1003.8
20260504220039 17 111 6.4 9.7 0.00 0.00 0.00 46 1003.9
20260504215536 17 108 6.4 9.7 0.00 0.00 0.00 46 1004.0
20260504215036 17 108 3.2 11.3 0.00 0.00 0.00 46 1003.9
20260504214035 17 118 4.8 11.3 0.00 0.00 0.00 45 1004.0
20260504213536 18 119 6.4 11.3 0.00 0.00 0.00 44 1004.0
20260504213035 18 119 4.8 14.5 0.00 0.00 0.00 44 1004.1
20260504212036 18 122 4.8 9.7 0.00 0.00 0.00 44 1004.0
20260504211535 18 133 4.8 12.9 0.00 0.00 0.00 45 1004.1
20260504211035 18 131 6.4 12.9 0.00 0.00 0.00 44 1004.1
20260504210037 18 127 6.4 17.7 0.00 0.00 0.00 44 1004.0
20260504205534 18 122 8.0 14.5 0.00 0.00 0.00 44 1004.0
20260504205034 18 125 6.4 11.3 0.00 0.00 0.00 44 1004.1
20260504204535 18 126 6.4 9.7 0.00 0.00 0.00 46 1004.1
20260504204035 18 120 6.4 11.3 0.00 0.00 0.00 44 1004.0
20260504203533 18 116 4.8 11.3 0.00 0.00 0.00 45 1004.3
20260504203034 18 115 3.2 6.4 0.00 0.00 0.00 46 1004.1
20260504202534 18 116 6.4 6.4 0.00 0.00 0.00 46 1004.1
20260504202031 18 131 4.8 12.9 0.00 0.00 0.00 46 1004.1
20260504201530 18 133 3.2 12.9 0.00 0.00 0.00 45 1004.1
20260504201029 19 132 6.4 14.5 0.00 0.00 0.00 44 1004.0
20260504200028 19 140 6.4 17.7 0.00 0.00 0.00 44 1004.2
20260504195529 19 149 6.4 17.7 0.00 0.00 0.00 43 1004.1
20260504194528 19 150 6.4 17.7 0.00 0.00 0.00 44 1004.2
20260504194028 19 147 4.8 14.5 0.00 0.00 0.00 44 1004.1
20260504193527 19 147 8.0 12.9 0.00 0.00 0.00 44 1004.1
20260504193028 19 145 6.4 12.9 0.00 0.00 0.00 45 1004.1
20260504192528 19 149 8.0 12.9 0.00 0.00 0.00 45 1004.0
20260504192028 19 156 6.4 17.7 0.00 0.00 0.00 46 1004.2
20260504191527 20 155 8.0 17.7 0.00 0.00 0.00 45 1004.1
20260504191027 20 156 11.3 17.7 0.00 0.00 0.00 45 1004.0
20260504190528 20 160 11.3 17.7 0.00 0.00 0.00 45 1004.3
20260504185526 20 154 11.3 14.5 0.00 0.00 0.00 45 1004.1
20260504185028 20 158 9.7 17.7 0.00 0.00 0.00 45 1004.0
20260504184527 20 152 11.3 22.5 0.00 0.00 0.00 45 1004.0
20260504183527 20 147 14.5 22.5 0.00 0.00 0.00 46 1004.1
20260504183027 20 149 9.7 17.7 0.00 0.00 0.00 47 1004.0
20260504182528 20 138 3.2 9.7 0.00 0.00 0.00 48 1004.0
20260504182028 20 137 3.2 9.7 0.00 0.00 0.00 49 1003.7
20260504181527 20 139 3.2 9.7 0.00 0.00 0.00 49 1003.8
20260504181027 20 137 3.2 9.7 0.00 0.00 0.00 48 1003.7
20260504180528 20 140 1.6 6.4 0.00 0.00 0.00 48 1003.7
20260504180027 20 149 4.8 6.4 0.00 0.00 0.00 48 1003.8
20260504175027 21 270 1.6 3.2 0.00 0.00 0.00 48 1003.7
20260504174526 21 270 0.0 3.2 0.00 0.00 0.00 48 1003.5
20260504174027 21 270 1.6 3.2 0.00 0.00 0.00 47 1003.7
20260504173026 21 0 0.0 0.0 0.00 0.00 0.00 46 1003.8
20260504171526 21 0 0.0 0.0 0.00 0.00 0.00 46 1003.8
20260504171026 21 270 0.0 3.2 0.00 0.00 0.00 46 1003.6
20260504170526 21 270 0.0 3.2 0.00 0.00 0.00 46 1003.9
20260504151025 22 209 4.8 14.5 0.00 0.00 0.00 47 1004.1
20260504150526 22 213 4.8 14.5 0.00 0.00 0.00 44 1004.1
20260504141025 21 203 11.3 17.7 0.00 0.00 0.00 44 1004.6
20260504140524 21 189 12.9 17.7 0.00 0.00 0.00 46 1004.7
20260504130523 22 200 11.3 22.5 0.00 0.00 0.00 46 1005.1
20260504110524 20 163 8.0 20.9 0.00 0.00 0.00 47 1005.7
20260504100522 18 151 8.0 24.1 0.00 0.00 0.00 48 1006.0
20260504081521 17 129 1.6 12.9 0.00 0.00 0.00 53 1006.5
20260504081022 17 131 6.4 12.9 0.00 0.00 0.00 54 1006.4
20260504080521 17 139 6.4 12.9 0.00 0.00 0.00 53 1006.3
20260504050520 13 135 3.2 14.5 0.00 0.00 0.00 54 1006.1
20260504050021 13 133 4.8 17.7 0.00 0.00 0.00 53 1006.1
20260504045519 12 133 6.4 17.7 0.00 0.00 0.00 53 1006.0
20260504045020 12 127 3.2 14.5 0.00 0.00 0.00 53 1006.0
20260504044519 12 126 4.8 14.5 0.00 0.00 0.00 53 1006.0
20260504044021 12 131 6.4 17.7 0.00 0.00 0.00 54 1005.9
20260504043520 12 130 6.4 17.7 0.00 0.00 0.00 53 1006.1
20260504042520 12 133 6.4 14.5 0.00 0.00 0.00 54 1006.0
20260504041520 12 129 6.4 14.5 0.00 0.00 0.00 54 1006.3
20260504041020 12 128 4.8 14.5 0.00 0.00 0.00 54 1006.0
20260504040021 12 125 9.7 22.5 0.00 0.00 0.00 54 1006.0
20260504035519 12 124 6.4 27.4 0.00 0.00 0.00 53 1005.9
20260504035019 12 129 8.0 32.2 0.00 0.00 0.00 53 1005.7
20260504034520 12 131 12.9 32.2 0.00 0.00 0.00 54 1005.6
20260504034020 12 125 12.9 32.2 0.00 0.00 0.00 54 1005.5
20260504033519 12 116 12.9 24.1 0.00 0.00 0.00 53 1005.8
20260504033018 12 115 12.9 24.1 0.00 0.00 0.00 53 1005.7
20260504032520 12 124 11.3 17.7 0.00 0.00 0.00 53 1005.8
20260504032019 12 126 11.3 17.7 0.00 0.00 0.00 53 1005.8
20260504031519 12 126 8.0 17.7 0.00 0.00 0.00 53 1005.8
20260504030519 12 114 11.3 17.7 0.00 0.00 0.00 53 1006.0
20260504030020 12 113 6.4 17.7 0.00 0.00 0.00 52 1005.9
20260504025020 12 115 9.7 20.9 0.00 0.00 0.00 52 1005.7
20260504024519 12 116 9.7 24.1 0.00 0.00 0.00 52 1005.9
20260504023019 12 121 11.3 20.9 0.00 0.00 0.00 52 1005.8
20260504022518 12 112 8.0 20.9 0.00 0.00 0.00 51 1005.7
20260504022018 12 120 8.0 20.9 0.00 0.00 0.00 51 1005.6
20260504021519 12 124 8.0 20.9 0.00 0.00 0.00 51 1005.8
20260504021018 12 120 12.9 20.9 0.00 0.00 0.00 50 1005.8
20260504020518 12 118 9.7 20.9 0.00 0.00 0.00 50 1005.7
20260504015518 13 127 12.9 22.5 0.00 0.00 0.00 50 1006.0
20260504015019 13 119 8.0 22.5 0.00 0.00 0.00 50 1005.8
20260504014518 13 122 12.9 22.5 0.00 0.00 0.00 50 1005.7
20260504014018 12 124 8.0 20.9 0.00 0.00 0.00 50 1005.8
20260504013019 13 123 9.7 20.9 0.00 0.00 0.00 49 1005.8
20260504012518 13 127 11.3 22.5 0.00 0.00 0.00 49 1005.7
20260504012018 13 123 9.7 22.5 0.00 0.00 0.00 49 1005.7
20260504011018 13 122 12.9 29.0 0.00 0.00 0.00 48 1005.8
20260504010018 13 131 9.7 24.1 0.00 0.00 0.00 48 1005.6
20260504005518 13 129 12.9 24.1 0.00 0.00 0.00 48 1005.6
20260504004517 13 127 12.9 25.7 0.00 0.00 0.00 48 1005.7
20260504004018 13 125 11.3 25.7 0.00 0.00 0.00 48 1005.7
20260504002517 13 129 12.9 22.5 0.00 0.00 0.00 48 1005.7
20260504002019 13 131 8.0 22.5 0.00 0.00 0.00 48 1005.8
20260504000517 13 112 12.9 20.9 0.00 0.00 0.00 48 1005.8
20260504000017 13 116 12.9 20.9 0.00 0.00 0.00 48 1005.8
20260503235518 13 128 8.0 17.7 0.00 0.00 0.00 48 1006.0
20260503235017 13 134 12.9 20.9 0.00 0.00 0.00 47 1006.0
20260503234517 13 124 6.4 20.9 0.00 0.00 0.00 48 1006.1
20260503233518 13 128 9.7 17.7 0.00 0.00 0.00 47 1006.0
20260503233017 14 128 11.3 17.7 0.00 0.00 0.00 47 1005.9
20260503231517 14 122 9.7 20.9 0.00 0.00 0.00 47 1006.0
20260503231017 14 127 9.7 20.9 0.00 0.00 0.00 47 1006.1
20260503224016 14 129 9.7 17.7 0.00 0.00 0.00 48 1006.2
20260503223517 14 128 11.3 17.7 0.00 0.00 0.00 48 1006.2